Theta_e
320 311 309 309 298 292 288 291 293 295 295 297 302 303 301 301 301 293 316 334 342 346 348 350 352 354 353 353 353 353 352 351 350 348 346 345 343 341 341 339 337 338 337 336 335 337 340 340 341
316 314 310 301 291 286 287 291 294 296 298 301 301 299 302 303 311 314 317 339 345 347 349 349 348 352 353 353 352 351 351 350 349 348 346 345 343 341 340 337 336 336 335 334 333 334 337 337 338
314 311 303 295 288 287 288 292 294 297 299 297 298 303 304 306 311 313 319 339 345 346 347 346 347 351 351 351 351 351 351 350 349 348 346 345 342 341 339 336 335 335 333 331 330 330 331 333 335
307 306 300 291 287 289 293 294 296 296 297 300 301 300 309 314 314 318 326 343 342 345 347 345 347 350 350 350 350 350 350 349 348 348 347 344 342 340 338 336 334 333 330 328 326 326 326 327 329
304 299 292 288 287 291 292 295 297 296 295 297 298 298 304 313 318 323 328 339 339 341 345 345 345 347 349 349 349 348 348 348 349 347 346 343 341 339 338 337 336 334 331 327 323 322 322 322 324
300 295 289 287 287 291 292 297 297 294 295 298 299 298 300 309 317 321 323 323 332 344 344 345 340 342 344 346 347 347 347 348 347 347 346 343 341 339 338 337 335 334 333 329 321 319 318 319 320
296 291 288 287 289 291 295 297 295 294 295 295 300 297 300 304 317 316 314 313 316 325 330 339 342 340 338 340 341 343 344 344 345 344 344 342 340 340 338 337 334 333 332 329 322 319 317 317 318
296 292 289 289 289 291 295 295 296 296 295 299 298 295 296 301 312 312 309 308 307 310 312 317 335 339 339 339 336 337 339 340 341 340 338 335 335 336 336 333 335 334 332 328 324 320 317 316 316
296 289 286 287 290 292 295 294 297 297 297 296 298 297 298 303 309 306 304 304 305 307 308 309 314 328 338 341 337 334 334 335 335 334 330 329 333 333 332 330 334 334 332 329 327 323 318 314 315
294 288 289 292 292 293 295 295 297 295 294 294 295 298 301 302 305 303 300 300 300 303 307 309 309 311 324 335 341 341 338 339 338 336 332 332 332 330 330 326 328 329 328 330 327 323 318 311 304
293 290 292 294 296 297 297 295 297 294 292 295 296 298 299 299 300 299 298 299 300 302 307 310 311 311 310 328 335 338 336 335 335 333 332 332 329 328 326 325 322 321 319 318 318 315 311 308 306
290 295 295 298 298 297 296 297 295 295 295 298 298 298 297 297 297 298 299 300 301 304 304 308 310 311 311 316 332 333 331 330 330 332 334 330 328 326 326 325 320 319 317 314 313 314 313 311 308
292 295 297 298 298 297 298 296 295 295 295 296 298 298 297 296 297 297 299 300 303 304 303 306 309 311 313 313 329 328 327 326 326 329 331 331 328 327 326 323 321 319 316 314 311 310 310 310 311
296 296 296 298 298 298 296 295 295 294 295 295 296 295 295 296 296 295 298 300 303 303 303 307 312 313 317 326 323 322 322 322 321 323 323 325 325 322 319 317 316 313 313 311 310 308 308 307 309
296 292 294 296 297 296 296 293 294 294 294 294 294 293 294 295 296 295 297 300 302 302 304 308 314 315 317 318 317 317 317 317 316 316 317 318 318 317 315 313 311 312 310 308 307 308 306 304 303
291 291 288 293 295 295 295 289 295 294 294 293 293 291 293 294 294 294 297 300 300 301 304 307 311 311 312 313 313 312 313 313 312 313 313 313 313 312 310 308 307 308 307 305 303 302 300 297 297
289 285 287 291 295 293 292 290 293 293 293 292 291 291 292 292 292 294 298 298 299 301 303 303 307 307 309 308 306 305 305 305 306 306 308 308 307 306 304 301 300 299 299 299 298 294 293 292 294
285 285 287 288 292 291 289 290 292 293 292 292 291 290 291 292 292 294 297 298 299 301 302 302 304 305 305 303 301 299 298 297 299 299 299 300 300 299 296 294 292 293 294 294 293 290 289 289 292
289 287 287 290 294 291 290 291 293 292 290 290 290 291 291 292 292 294 296 297 298 299 300 301 303 303 303 301 299 297 294 294 294 294 292 293 293 293 291 290 289 289 289 288 289 289 286 286 287
290 287 288 290 293 291 290 289 291 292 292 293 293 292 293 290 290 293 294 295 297 299 300 301 303 303 303 301 296 294 292 291 291 291 290 290 290 289 289 288 287 286 286 285 284 285 284 284 284
289 288 287 289 290 289 287 287 289 292 293 293 295 296 295 293 290 292 293 294 295 297 300 302 303 303 297 293 292 290 290 290 289 288 287 287 288 288 287 286 286 285 285 283 282 283 283 281 283
287 292 291 290 287 283 287 282 287 290 291 291 295 294 294 291 292 293 294 294 296 298 304 305 303 297 295 294 292 291 290 288 287 284 285 286 286 286 286 285 285 284 284 283 283 283 282 282 280
290 292 290 288 285 282 282 281 285 289 289 292 295 293 292 291 291 292 294 296 297 299 299 300 297 296 294 294 293 291 288 286 285 284 284 283 284 284 284 284 284 283 283 282 282 281 281 281 280
293 290 289 286 284 279 285 284 285 287 291 292 296 293 291 290 291 293 294 295 294 295 295 297 295 294 294 292 290 289 286 284 284 283 282 282 282 283 283 284 283 283 282 281 281 281 281 281 280
291 288 280 279 277 279 284 282 289 290 293 293 295 292 289 290 290 291 291 293 292 292 294 295 294 292 291 290 288 288 286 285 284 283 282 282 281 280 280 281 281 281 281 281 281 281 280 280 279
288 287 281 274 276 279 282 280 286 291 293 294 292 291 289 288 290 290 292 292 291 291 292 292 291 289 289 288 287 286 285 284 284 283 282 282 281 281 281 281 281 281 281 281 280 280 279 279 278
287 285 290 285 272 275 282 285 291 290 291 290 292 288 286 288 289 289 290 290 290 289 290 290 290 288 288 287 286 285 285 284 283 282 282 281 281 281 280 280 280 280 280 279 279 279 278 277 277
289 291 283 282 273 273 280 281 286 288 289 291 289 287 286 287 286 287 288 288 288 287 287 288 289 287 286 286 286 285 285 284 283 282 281 281 281 281 280 279 279 279 279 278 278 276 277 276 276
286 285 286 286 281 276 274 283 289 291 291 290 291 288 287 287 286 286 286 287 286 285 285 285 285 285 285 286 286 284 284 283 283 281 281 281 280 279 279 279 278 278 277 277 276 276 276 276 276
288 288 287 283 279 282 280 286 289 291 292 292 292 289 288 288 286 286 285 285 284 283 284 284 284 284 285 285 284 284 283 282 281 280 280 280 279 279 279 278 278 277 277 276 276 275 276 275 275
Wind_Speed
6 7 2 5 6 7 1 1 2 2 4 3 4 10 10 4 2 4 2 2 11 9 7 9 12 12 12 11 11 11 11 14 16 17 15 17 16 16 16 15 15 15 16 15 15 15 15 14 15
4 2 5 3 7 5 4 1 4 3 6 8 8 4 8 4 2 2 2 6 10 10 8 8 11 12 12 11 10 10 11 13 14 16 15 16 16 15 16 16 15 15 15 15 15 14 14 14 15
3 2 5 6 4 5 5 4 6 5 9 4 5 6 4 1 2 2 1 10 8 8 7 7 10 12 12 12 11 12 12 12 13 15 15 16 15 15 16 16 16 15 15 15 15 15 14 14 15
2 5 6 7 4 1 7 7 6 5 4 6 6 7 3 2 1 3 5 11 8 9 8 9 11 11 11 12 11 12 12 12 12 12 14 15 15 15 15 16 15 15 15 15 15 15 15 15 16
5 4 5 4 1 2 2 5 7 5 3 4 1 4 3 4 3 6 6 9 8 6 7 10 11 10 11 11 12 12 12 14 13 12 15 15 15 15 15 15 15 14 14 15 15 15 15 15 16
5 4 6 3 2 2 2 7 7 3 3 4 7 6 3 3 5 5 8 7 4 8 8 8 9 9 9 9 9 9 10 12 13 13 15 15 14 15 15 14 14 13 14 15 15 14 15 15 15
7 5 5 4 5 2 4 3 6 6 6 2 9 6 2 1 5 5 8 8 9 9 8 5 5 8 7 7 8 10 10 11 14 14 14 13 13 14 15 13 14 14 14 14 14 14 15 14 14
6 5 3 2 5 4 3 2 5 6 3 4 1 7 6 5 7 7 7 8 8 8 7 5 3 4 5 5 7 8 10 9 11 12 12 11 11 11 11 9 11 15 14 13 13 13 13 13 13
4 6 1 1 5 4 3 4 1 3 7 4 4 4 3 9 8 7 5 4 5 5 6 5 4 3 4 4 4 8 11 10 11 11 12 11 6 6 7 6 6 10 12 14 13 11 10 10 11
6 5 5 1 3 4 4 4 7 4 4 4 3 2 4 5 6 8 6 5 3 4 3 4 4 3 2 1 4 5 5 5 5 7 8 5 4 4 5 6 10 10 8 9 12 12 11 8 5
2 5 4 2 2 4 5 2 4 8 3 7 10 9 5 5 7 8 5 5 5 2 3 4 4 5 4 2 2 2 2 3 3 7 7 7 5 4 3 3 3 3 6 3 5 5 4 6 4
3 1 3 4 2 1 4 2 3 5 5 3 9 8 6 8 8 8 8 6 5 4 1 2 3 3 3 3 2 3 4 3 3 5 7 6 5 5 3 3 4 4 3 4 4 3 4 5 6
2 1 1 3 4 4 1 4 4 5 4 6 9 8 9 8 7 5 6 5 6 5 3 1 2 3 3 2 4 4 4 3 4 4 6 6 6 5 4 4 4 3 4 3 4 5 5 5 5
3 0 4 4 4 3 5 4 3 3 7 7 9 9 8 9 9 5 6 6 5 4 3 1 2 3 4 5 6 5 4 4 5 4 5 7 5 6 5 5 5 5 4 4 4 4 4 4 5
2 3 5 6 5 5 4 6 11 6 9 9 9 8 8 9 8 9 8 7 7 4 4 3 4 3 6 7 7 5 4 5 5 5 8 8 7 7 7 5 5 3 4 5 5 6 5 5 5
2 3 2 3 7 3 6 10 5 10 14 12 10 9 9 9 8 7 7 6 6 5 5 5 4 4 7 7 7 6 5 6 5 6 6 9 9 9 8 6 5 3 5 6 5 4 5 5 4
5 4 5 8 7 4 6 8 3 6 9 9 10 10 9 8 8 7 7 7 7 6 6 6 5 7 8 9 8 8 8 7 5 7 6 9 9 9 8 6 4 5 6 5 4 5 4 4 4
6 5 5 6 5 3 4 13 5 7 9 12 10 10 11 12 13 8 8 7 7 6 6 6 6 8 9 9 8 8 7 6 6 6 6 9 7 8 8 6 6 5 6 5 5 6 6 4 4
4 4 5 4 4 6 9 12 14 10 7 9 10 13 14 15 8 8 8 7 7 6 7 7 10 9 8 8 8 6 6 5 6 6 7 7 6 7 8 6 7 6 7 5 4 3 7 8 4
5 5 9 7 5 7 8 13 10 6 11 15 19 16 17 9 10 10 9 8 8 9 8 8 10 10 7 5 5 5 6 5 5 5 7 6 7 6 7 8 7 6 7 7 6 4 3 4 5
8 9 5 9 3 3 5 9 8 10 10 8 19 18 16 19 17 13 11 10 8 9 10 10 11 10 7 9 10 8 9 7 5 5 5 5 7 7 8 8 8 7 6 7 5 5 6 4 5
8 8 5 5 1 6 4 11 6 7 12 9 18 16 16 14 15 15 15 13 11 10 11 12 11 10 11 12 11 15 10 10 3 3 4 6 7 8 8 8 7 8 6 8 6 5 5 4 3
7 3 5 2 3 2 3 6 5 5 9 13 19 14 14 17 20 19 18 16 12 11 11 11 11 11 12 11 10 8 8 9 8 6 9 7 6 7 6 6 8 10 7 7 8 7 8 4 4
7 5 6 4 2 6 11 10 6 8 14 8 14 9 15 16 16 15 12 12 11 8 8 11 13 11 11 11 10 11 17 14 11 9 8 6 5 4 5 7 8 8 8 7 6 6 7 6 6
5 7 3 4 1 10 4 7 16 5 7 11 15 10 13 14 16 16 16 15 13 13 12 11 13 11 11 12 11 13 14 15 15 13 9 10 6 3 5 6 6 6 7 7 6 8 7 5 4
9 10 9 9 6 6 1 11 9 10 9 9 8 7 9 11 14 16 18 16 16 14 13 13 12 12 12 13 13 11 11 8 9 9 10 8 6 7 5 7 7 8 7 8 7 6 5 5 5
7 10 6 2 2 2 7 9 10 8 9 9 15 5 9 12 14 14 14 14 15 14 14 14 13 12 13 13 12 12 10 11 11 11 8 7 8 7 8 7 8 7 8 8 7 5 5 5 5
6 8 3 1 2 7 6 8 13 5 10 14 8 8 9 8 9 11 13 14 12 12 11 11 13 15 13 13 13 12 12 11 12 11 12 11 9 9 9 8 7 8 7 7 6 5 5 6 3
4 5 3 5 6 6 3 11 8 11 11 8 10 9 10 12 14 14 12 11 11 10 11 12 12 13 13 14 13 13 12 12 11 11 11 11 10 10 10 9 9 9 7 6 6 5 5 5 5
2 7 7 6 6 7 3 19 4 7 7 9 8 8 10 12 13 12 12 13 12 12 11 11 10 12 12 11 11 13 12 12 11 11 11 11 12 9 9 9 9 8 7 6 6 6 6 6 5
Wind_Direction
329 316 102 43 60 66 13 49 168 85 49 350 26 99 116 78 73 180 280 135 139 138 140 139 133 128 122 121 115 112 111 108 108 104 101 95 87 79 77 70 65 65 62 61 59 57 57 51 45
331 322 45 83 85 71 286 301 129 132 132 140 91 65 51 49 72 131 103 165 140 142 144 143 140 134 128 122 116 123 121 117 115 111 107 100 91 87 82 76 70 68 65 60 59 56 55 51 47
294 52 81 91 109 151 169 209 170 149 170 144 92 56 86 4 331 170 180 157 140 144 147 142 148 146 141 133 127 122 121 124 123 121 117 106 100 91 85 79 76 70 66 61 58 56 54 49 49
51 11 33 82 113 238 158 195 195 137 114 82 120 68 40 340 218 201 121 149 138 150 149 158 160 157 152 144 135 129 131 130 129 127 122 113 108 101 93 86 81 75 68 66 63 60 56 52 51
38 58 59 83 17 116 150 186 164 141 99 64 135 139 87 356 40 28 94 146 151 158 160 161 164 165 162 156 146 147 147 140 137 137 133 124 119 111 103 96 88 81 77 74 70 65 61 57 57
43 90 64 144 201 230 226 175 136 110 121 163 75 95 179 316 63 19 68 65 51 143 146 154 159 153 160 153 146 149 149 142 139 138 137 131 126 120 115 106 98 92 86 83 81 76 70 67 64
106 81 167 136 170 176 208 146 124 145 134 106 142 106 225 242 123 105 80 64 56 55 62 55 130 139 143 157 164 163 158 156 147 144 138 136 133 131 126 121 112 97 83 82 82 77 72 71 68
102 90 99 141 182 217 235 62 120 134 113 120 71 166 190 205 150 106 80 67 59 51 58 50 68 148 155 155 171 152 156 160 145 142 138 135 136 135 140 142 128 113 101 91 87 80 72 68 67
101 63 96 114 158 214 172 128 354 65 94 57 352 146 184 137 132 96 76 60 57 49 47 47 45 60 110 159 157 154 157 161 149 139 143 139 142 143 139 119 106 102 108 106 91 87 80 70 57
80 97 186 214 176 198 182 165 157 116 111 37 41 30 77 112 142 129 131 126 106 92 48 33 26 16 65 138 171 171 157 157 146 148 146 133 126 123 115 100 88 85 71 88 91 79 68 55 46
144 156 192 195 199 159 171 139 188 125 235 195 190 179 149 127 136 140 149 155 152 116 43 25 12 349 334 229 165 100 90 101 130 151 150 145 130 119 116 109 104 106 90 58 75 78 60 63 56
91 221 167 186 154 102 164 175 167 185 206 182 176 155 140 148 155 161 159 160 149 129 145 346 345 335 289 274 117 102 107 101 108 160 142 139 133 128 139 125 124 99 80 89 77 81 85 62 60
128 245 194 168 166 174 137 217 213 218 175 118 128 145 160 165 163 170 164 153 150 166 199 271 297 254 256 205 116 113 98 97 99 104 128 143 141 142 118 88 75 85 105 76 63 55 53 44 41
174 47 281 232 219 206 189 232 155 199 162 155 154 170 176 176 177 156 175 168 172 170 191 256 30 196 159 123 112 104 95 91 75 74 85 93 99 102 96 84 72 53 44 50 75 72 67 55 48
101 309 314 234 204 222 144 286 235 170 165 179 188 183 184 193 184 191 192 178 174 187 182 147 134 84 105 104 99 94 91 85 78 72 73 78 87 90 87 77 68 60 67 70 52 56 50 48 37
39 54 335 287 144 242 127 263 267 168 164 198 197 200 201 207 201 200 186 171 182 173 178 141 129 105 98 108 101 96 81 82 81 75 72 77 80 87 88 90 77 58 68 68 56 40 56 48 52
0 237 215 311 194 142 172 260 270 162 180 201 204 207 205 209 210 201 181 179 181 180 164 140 125 116 119 108 97 88 80 73 74 80 79 81 84 90 96 92 83 71 72 64 65 46 56 42 39
207 219 242 233 212 169 215 262 259 199 199 215 212 214 211 210 207 184 178 180 175 178 169 148 135 134 128 113 103 91 84 72 74 73 78 91 87 90 98 89 79 74 83 68 60 68 45 60 32
172 194 243 250 219 181 226 241 255 210 231 236 227 222 218 218 187 181 180 171 168 175 164 167 146 151 143 134 126 112 107 102 86 80 69 66 80 86 96 89 85 77 80 78 59 82 56 36 4
242 247 259 293 241 184 255 250 245 206 223 219 225 223 218 189 182 181 177 176 180 177 176 167 157 159 157 133 105 105 118 87 86 87 72 75 82 80 87 94 83 79 86 62 51 60 79 59 7
232 218 231 231 341 258 321 270 233 243 230 225 234 230 218 204 182 180 179 185 180 183 176 171 163 159 128 120 114 106 104 106 104 85 80 55 80 79 85 85 91 84 83 78 58 56 78 102 30
231 210 199 239 130 252 142 282 233 246 242 225 240 225 217 186 183 179 179 184 185 184 176 169 157 145 140 142 143 151 147 140 120 107 101 86 72 84 83 89 98 94 86 78 69 45 60 90 83
231 176 201 232 201 349 214 281 262 214 250 247 247 225 206 192 182 180 183 180 179 172 168 162 148 149 150 150 156 142 124 109 119 114 107 95 81 71 81 108 100 88 83 80 81 68 62 47 79
146 84 48 51 48 260 215 207 189 200 222 245 251 221 196 187 186 178 173 163 167 158 155 156 152 154 154 149 144 149 138 139 135 134 125 118 101 96 98 91 90 93 96 96 95 91 82 79 79
130 119 293 322 328 245 294 227 253 286 243 222 250 230 198 181 175 167 167 171 167 167 164 159 158 155 150 147 144 150 146 146 146 144 140 135 132 134 114 106 105 105 111 107 101 86 77 71 83
196 163 163 214 212 269 356 243 253 229 276 256 266 266 170 176 181 177 176 173 171 171 166 161 161 151 152 149 148 148 148 148 145 146 146 143 142 134 134 122 118 118 115 102 93 96 102 106 92
198 213 169 356 90 4 225 280 275 253 275 264 254 146 174 184 185 178 171 174 173 173 172 165 160 156 159 153 149 153 152 154 153 145 143 143 133 139 138 131 127 125 111 108 114 115 116 106 103
157 166 101 9 216 255 270 269 236 230 239 252 265 210 198 173 167 174 177 177 175 173 165 162 165 164 160 157 160 160 159 156 153 150 149 143 140 139 142 140 136 121 112 116 118 113 114 112 125
149 190 178 139 158 192 294 261 215 212 217 237 253 220 185 184 183 181 178 177 173 166 167 167 167 160 162 163 162 159 160 156 152 153 147 149 146 152 152 151 139 125 124 131 121 120 133 138 139
329 207 161 159 216 236 159 263 177 172 196 203 256 209 191 186 180 178 175 169 171 173 173 171 166 165 166 160 156 161 156 153 152 154 154 156 156 155 153 146 130 132 132 136 141 156 164 162 158